This demonstration page uses our WeatherBlox Daily Observations layout. Learn more.

Hourly Observations for June 17, 2019

Temp ( °F °C ) Dew Point ( °F °C ) Humidity (%) Winds ( mph kmh ) Pressure ( in mb ) Visibility ( mi km ) Precip ( " mm )
12:15 am 00:15 Cloudy 71 21.5 59 15 67 67 Calm 29.88 1012 10 16.09344 0 0
12:35 am 00:35 Cloudy 71 21.5 58 14.5 65 65 W 7 11 29.88 1012 10 16.09344 0 0
12:55 am 00:55 Cloudy 71 21.4 59 14.8 66 66 WNW 5 7 29.88 1012 10 16.09344 0 0
1:15 am 01:15 Cloudy 70 21 59 15 69 69 Calm 29.88 1012 10 16.09344 0 0
1:35 am 01:35 Cloudy 69 20.8 60 15.3 71 71 Calm 29.88 1012 10 16.09344 0 0
1:55 am 01:55 Cloudy 68 20.2 61 15.9 76 76 WSW 5 7 29.88 1012 10 16.09344 0 0
2:15 am 02:15 Cloudy 68 20 61 16.1 78 78 W 8 13 29.88 1012 10 16.09344 0 0
2:35 am 02:35 Cloudy 68 19.8 61 16.1 79 79 WNW 7 11 29.88 1012 10 16.09344 0 0
2:55 am 02:55 Cloudy 67 19.5 61 16.3 82 82 NW 5 7 29.88 1012 10 16.09344 0 0
3:15 am 03:15 Cloudy 67 19.5 62 16.4 82 82 NNW 5 7 29.88 1012 10 16.09344 0 0
3:35 am 03:35 Cloudy 66 19.1 61 16 82 82 N 3 6 29.91 1013 10 16.09344 0 0
3:55 am 03:55 Partly Cloudy 65 18.6 60 15.7 83 83 Calm 29.91 1013 10 16.09344 0 0
4:15 am 04:15 Mostly Cloudy 65 18.6 60 15.8 84 84 NW 5 7 29.91 1013 10 16.09344 0 0
4:35 am 04:35 Cloudy with Light Rain 65 18.2 61 16.2 88 88 WNW 3 6 29.91 1013 10 16.09344 0 0
4:55 am 04:55 Mostly Cloudy with Light Rain 64 18 62 16.5 91 91 Calm 29.91 1013 10 16.09344 0 0
5:15 am 05:15 Partly Cloudy 64 17.8 62 16.6 93 93 W 3 6 29.91 1013 10 16.09344 0 0
5:35 am 05:35 Clear 64 17.8 61 16.3 91 91 Calm 29.91 1013 10 16.09344 0 0
5:55 am 05:55 Clear 64 17.5 62 16.6 95 95 Calm 29.91 1013 10 16.09344 0 0
6:15 am 06:15 Sunny 63 17.2 62 16.5 96 96 W 5 7 29.91 1013 10 16.09344 0 0
6:35 am 06:35 Mostly Cloudy 64 17.5 62 16.6 95 95 W 5 7 29.94 1014 10 16.09344 0 0
6:55 am 06:55 Cloudy 64 17.8 62 16.7 93 93 W 8 13 29.94 1014 10 16.09344 0 0
7:15 am 07:15 Cloudy 64 17.8 63 17 95 95 W 8 13 29.94 1014 10 16.09344 0 0
7:35 am 07:35 Cloudy 65 18.5 62 16.7 89 89 W 7 11 29.94 1014 10 16.09344 0 0
7:55 am 07:55 Cloudy 65 18.5 62 16.9 90 90 WNW 6 9 29.94 1014 10 16.09344 0 0
8:15 am 08:15 Mostly Cloudy 65 18.6 62 16.7 89 89 WNW 6 9 29.94 1014 10 16.09344 0 0
8:35 am 08:35 Sunny 66 19.1 62 16.4 84 84 NW 7 11 29.94 1014 10 16.09344 0 0
8:55 am 08:55 Sunny 67 19.3 62 16.4 83 83 W 5 7 29.94 1014 10 16.09344 0 0
9:15 am 09:15 Sunny 68 20 62 16.4 80 80 WNW 6 9 29.91 1013 10 16.09344 0 0
9:35 am 09:35 Mostly Cloudy 68 20.1 61 16 77 77 NW 7 11 29.94 1014 10 16.09344 0 0
9:55 am 09:55 Cloudy 69 20.3 61 16.2 77 77 WNW 7 11 29.94 1014 10 16.09344 0 0
10:15 am 10:15 Cloudy with Light Rain 69 20.7 62 16.4 77 77 WNW 7 11 29.94 1014 10 16.09344 0 0
10:35 am 10:35 Cloudy 70 21 60 15.8 72 72 NW 7 11 29.94 1014 10 16.09344 0 0
10:55 am 10:55 Cloudy 71 21.5 60 15.5 69 69 NNW 7 11 29.94 1014 10 16.09344 0 0
11:15 am 11:15 Cloudy 72 22.4 60 15.5 65 65 NNW 8 13 29.94 1014 10 16.09344 0 0
11:35 am 11:35 Cloudy 73 22.6 59 15.2 63 63 NNW 8 13 29.94 1014 10 16.09344 0 0
11:55 am 11:55 Cloudy 72 22 60 15.3 66 66 N 6 9 29.94 1014 10 16.09344 0 0
12:15 pm 12:15 Cloudy 72 22.2 60 15.4 65 65 NNW 6 9 29.94 1014 10 16.09344 0 0
12:35 pm 12:35 Cloudy 72 22.2 59 15.1 64 64 N 6 9 29.94 1014 10 16.09344 0 0
12:55 pm 12:55 Cloudy 73 22.5 59 15.1 63 63 N 5 7 29.94 1014 10 16.09344 0 0
1:15 pm 13:15 Mostly Cloudy 74 23.2 60 15.3 61 61 N 5 7 29.94 1014 10 16.09344 0 0
1:35 pm 13:35 Cloudy 73 23 58 14.7 60 60 NW 3 6 29.94 1014 10 16.09344 0 0
1:55 pm 13:55 Cloudy with Light Rain 73 23 58 14.7 60 60 Calm 29.94 1014 10 16.09344 0 0
2:15 pm 14:15 Cloudy 73 23 59 15 61 61 WNW 3 6 29.94 1014 10 16.09344 0 0
2:35 pm 14:35 Cloudy 74 23.5 57 14.1 56 56 Calm 29.91 1013 10 16.09344 0 0
2:55 pm 14:55 Cloudy 75 23.9 59 14.9 57 57 Calm 29.88 1012 10 16.09344 0 0
3:15 pm 15:15 Partly Cloudy 77 25.1 60 15.8 56 56 Calm 29.88 1012 10 16.09344 0 0
3:35 pm 15:35 Mostly Cloudy 77 25.2 60 15.5 55 55 Calm 29.88 1012 10 16.09344 0 0
3:55 pm 15:55 Partly Cloudy 78 25.8 60 15.4 53 53 Calm 29.88 1012 10 16.09344 0 0
4:15 pm 16:15 Partly Cloudy 79 26.2 58 14.3 48 48 SSE 6 9 29.85 1011 10 16.09344 0 0
4:35 pm 16:35 Partly Cloudy 79 26.2 59 15.2 51 51 SSE 7 11 29.85 1011 10 16.09344 0 0
4:55 pm 16:55 Partly Cloudy 79 25.9 59 15.2 52 52 S 7 11 29.85 1011 10 16.09344 0 0
5:15 pm 17:15 Partly Cloudy 79 26.1 59 15.1 51 51 S 5 7 29.85 1011 10 16.09344 0 0
5:35 pm 17:35 Partly Cloudy 80 26.4 58 14.4 48 48 S 7 11 29.85 1011 10 16.09344 0 0
5:55 pm 17:55 Partly Cloudy 80 26.7 57 14.1 46 46 SSW 9 15 29.8 1009 10 16.09344 0 0
6:15 pm 18:15 Sunny 79 26 57 14 48 48 S 6 9 29.83 1010 10 16.09344 0 0
6:35 pm 18:35 Partly Cloudy 79 26.2 57 13.7 46 46 S 5 7 29.8 1009 10 16.09344 0 0
6:55 pm 18:55 Mostly Cloudy 78 25.8 58 14.4 49 49 S 5 7 29.83 1010 10 16.09344 0 0
7:15 pm 19:15 Partly Cloudy 78 25.3 59 15 53 53 S 7 11 29.83 1010 10 16.09344 0 0
7:35 pm 19:35 Partly Cloudy 77 25.1 59 15 54 54 SSE 7 11 29.83 1010 10 16.09344 0 0
7:55 pm 19:55 Partly Cloudy 76 24.5 60 15.3 57 57 SE 7 11 29.83 1010 10 16.09344 0 0
8:15 pm 20:15 Partly Cloudy 75 24 60 15.5 59 59 ESE 5 7 29.83 1010 10 16.09344 0 0
8:35 pm 20:35 Sunny 74 23.1 60 15.8 64 64 ESE 3 6 29.85 1011 10 16.09344 0 0
8:55 pm 20:55 Mostly Cloudy 73 23 61 16.3 66 66 E 3 6 29.85 1011 10 16.09344 0 0
9:15 pm 21:15 Cloudy 73 23 62 16.4 66 66 Calm 29.85 1011 10 16.09344 0 0
9:35 pm 21:35 Cloudy 70 21 62 16.6 76 76 N 15 24 29.91 1013 10 16.09344 0 0
9:55 pm 21:55 Cloudy 67 19.2 62 16.7 86 86 N 15 24 29.97 1015 10 16.09344 0 0
10:15 pm 22:15 Cloudy 66 19.1 62 16.5 85 85 N 15 24 29.97 1015 10 16.09344 0 0
10:35 pm 22:35 Cloudy 67 19.3 60 15.8 80 80 NNE 15 24 29.97 1015 10 16.09344 0 0
10:55 pm 22:55 Cloudy 65 18.6 61 16 85 85 NNE 18 30 29.97 1015 10 16.09344 0 0
11:15 pm 23:15 Cloudy with Light Rain 64 17.6 61 16.2 92 92 N 8 13 30 1016 10 16.09344 0 0
11:35 pm 23:35 Cloudy with Light Rain 63 17.3 63 17 98 98 NNE 7 11 30 1016 10 16.09344 0.01 0.254
11:55 pm 23:55 Cloudy with Rain 63 17.3 63 17.1 99 99 NNE 7 11 30 1016 10 16.09344 0.02 0.508

Powered by AerisWeather